GFSFLT2_250_spd_000.txt.gz
Wind_Speed
78 74 70 65 62 52 51 46 44 43 45 43 35 34 37 36 33 31 30 29 28 27 27 29 30 32 33 34 34 34 35 36
87 84 78 71 67 67 56 51 45 47 45 47 42 41 41 37 36 36 33 33 33 32 31 32 33 35 36 38 39 38 37 37
95 88 82 78 76 70 63 58 51 49 48 56 46 45 45 43 41 39 39 38 37 35 36 39 40 40 41 41 42 41 40 38
94 93 92 89 85 81 74 59 55 52 53 60 52 49 50 49 46 45 45 44 42 40 41 43 43 44 44 42 43 44 43 40
99 99 98 95 87 82 76 70 62 58 57 58 63 57 55 54 50 48 47 48 46 44 44 46 46 45 44 44 46 47 46 44
95 100 99 99 93 88 86 78 68 60 63 63 65 66 63 60 56 52 50 51 51 48 48 46 46 47 46 48 50 49 50 49
91 98 104 102 97 96 92 82 78 67 65 65 66 74 69 66 60 57 55 56 55 55 51 48 48 49 49 52 53 52 54 54
87 94 106 107 103 99 95 92 85 80 70 71 72 77 74 67 64 62 62 63 61 59 54 53 52 52 53 57 56 57 59 61
80 93 100 109 105 103 97 96 92 86 73 78 78 80 76 73 67 66 65 66 64 63 58 56 54 55 60 62 61 63 65 66
76 86 97 95 103 104 103 98 94 92 86 82 82 82 78 74 68 68 68 68 67 65 61 59 57 61 63 67 66 68 70 69
66 80 84 87 98 107 107 101 96 91 89 84 82 82 83 75 73 71 70 70 70 68 64 61 60 65 69 71 71 72 72 70
62 70 75 88 88 94 104 102 95 93 86 85 84 87 88 80 77 76 74 74 73 71 69 66 68 71 74 72 72 73 74 72
59 65 71 76 82 87 97 93 98 93 92 88 87 92 89 84 83 79 78 77 76 76 74 73 74 75 74 75 74 72 72 70
56 57 62 64 71 82 85 90 97 95 94 92 89 91 88 86 85 83 82 82 80 79 79 79 77 77 79 76 73 71 70 71
55 55 49 52 61 66 72 82 92 95 93 93 91 90 87 86 86 85 85 84 82 81 82 80 81 79 80 75 72 70 69 70
50 49 42 49 52 58 66 73 82 91 91 92 90 88 86 85 84 85 82 82 82 82 80 80 81 78 79 77 73 70 71 72
44 42 43 46 50 54 59 66 72 83 88 88 85 85 84 85 85 82 80 78 80 79 78 78 78 77 79 76 73 73 73 75
42 40 33 34 44 59 50 54 73 73 80 82 80 82 81 81 82 82 78 76 77 78 77 77 78 79 79 77 75 74 76 77
45 38 34 35 29 34 44 46 52 61 74 74 76 78 78 77 78 78 76 77 79 82 80 81 81 81 79 78 76 77 75 74

GFSFLT2_250_spd_003.txt.gz
Wind_Speed
81 79 78 69 69 58 59 53 48 43 47 51 42 34 34 36 32 31 30 27 28 28 27 27 28 28 29 29 29 30 32 33
86 88 82 78 72 72 61 57 52 52 52 49 48 42 40 41 37 36 36 33 34 33 32 33 33 33 34 34 33 35 36 36
84 85 85 84 79 78 71 68 60 57 54 54 54 45 45 46 44 41 40 39 38 38 37 36 37 38 37 37 38 38 38 37
75 85 93 92 89 88 84 72 64 63 58 62 60 52 48 49 49 48 46 44 42 43 41 40 42 41 41 41 41 42 41 41
75 79 91 93 92 89 85 81 74 70 60 65 62 63 51 50 53 52 47 48 48 46 45 44 45 44 43 44 44 45 45 45
67 74 83 99 98 97 95 89 82 73 74 72 68 67 62 58 59 60 54 53 51 47 46 47 47 47 45 46 48 49 50 50
60 67 76 85 98 100 101 95 91 82 82 75 72 68 73 65 65 64 60 56 54 53 51 51 48 51 49 50 52 53 55 53
64 63 72 81 87 101 103 100 96 91 87 81 79 77 73 75 70 69 64 60 59 57 55 53 51 54 54 57 58 58 56 54
64 64 69 80 76 86 100 104 99 99 85 89 88 82 76 75 79 75 70 66 63 62 59 59 58 58 58 61 61 61 58 58
67 69 67 57 76 85 97 106 107 102 98 96 89 84 80 77 85 80 75 71 65 66 64 63 63 61 60 64 64 64 65 65
73 67 56 61 78 79 85 95 102 104 100 99 94 87 85 80 87 84 81 75 72 73 71 69 67 65 62 66 67 67 70 71
70 61 54 55 72 70 80 83 95 104 105 103 97 97 83 83 86 92 91 81 75 79 77 74 71 67 66 69 70 72 74 74
65 59 55 66 56 65 76 74 88 97 102 105 104 98 95 84 88 93 98 86 83 85 82 79 76 72 70 73 75 77 77 77
63 63 58 50 55 63 70 67 74 89 99 104 105 105 94 92 93 97 99 92 90 87 86 83 80 78 76 77 79 80 81 79
63 64 52 49 55 63 65 63 66 76 92 98 104 103 100 97 96 98 98 94 90 85 89 86 83 82 80 81 83 82 82 82
66 56 50 52 55 54 56 54 58 64 79 92 96 99 100 99 99 97 96 92 88 86 85 86 85 84 85 85 85 83 83 83
63 50 51 52 49 48 47 48 47 47 65 76 85 88 93 95 94 94 92 90 88 86 86 84 81 82 82 82 83 83 80 80
64 56 53 47 44 40 41 34 39 45 40 49 68 79 82 89 90 91 91 90 87 86 85 83 81 81 81 79 79 79 79 79
59 63 56 45 41 38 39 43 41 38 40 49 58 64 70 77 84 84 85 84 84 82 82 81 79 79 80 81 81 78 79 80

GFSFLT2_250_spd_006.txt.gz
Wind_Speed
46 68 78 69 72 63 63 58 54 46 45 43 46 42 39 35 32 33 33 30 31 30 28 27 26 25 25 27 27 27 27 27
42 49 64 77 73 74 68 64 57 55 53 47 49 52 44 40 37 42 38 35 35 34 32 31 29 28 29 30 31 30 32 32
44 40 49 70 81 77 76 74 68 61 55 54 54 54 51 46 43 47 45 38 41 38 37 36 35 35 33 34 34 33 34 35
59 46 53 55 66 83 83 76 72 68 59 60 63 63 56 52 51 55 51 45 46 42 40 38 39 38 37 37 37 37 37 38
66 51 48 43 52 69 84 83 82 79 63 67 73 66 62 58 55 56 54 49 50 47 43 44 43 42 41 41 40 39 40 41
67 64 68 61 57 61 74 87 83 82 73 75 79 71 71 64 58 57 58 55 51 53 49 50 49 48 46 43 42 43 45 47
69 72 75 66 59 58 66 76 89 82 84 84 83 78 76 70 65 65 65 60 55 56 54 52 53 52 49 49 46 49 51 52
82 76 77 72 66 50 56 62 80 85 90 89 86 85 84 79 72 73 69 68 61 61 57 58 57 57 55 53 54 55 56 58
87 81 81 77 47 61 60 65 72 84 87 93 96 94 92 88 84 74 72 71 66 63 65 64 62 61 60 58 59 61 61 62
89 85 85 54 67 67 62 62 69 73 77 91 98 98 95 91 90 79 73 79 71 72 68 66 66 62 62 62 64 65 65 66
92 84 71 68 66 65 64 55 62 76 79 84 95 101 102 97 94 90 83 75 81 81 79 70 69 70 68 65 66 68 72 68
81 76 65 56 66 61 67 57 68 74 77 82 85 100 99 99 98 96 93 84 82 92 87 69 76 77 72 71 71 72 76 73
69 73 65 71 64 63 70 57 59 63 72 78 84 88 93 102 104 100 96 93 86 92 94 78 81 80 79 78 75 75 76 77
77 70 69 70 53 56 51 59 54 59 63 73 79 86 95 98 104 98 99 94 91 103 93 85 85 83 82 80 78 77 79 81
70 64 70 66 64 66 67 59 54 53 62 67 70 74 81 91 96 100 98 99 100 101 98 90 86 85 85 83 81 80 80 84
67 73 70 63 62 59 54 49 53 52 53 54 57 59 68 77 91 98 102 104 103 101 97 91 87 89 89 87 86 85 84 85
66 67 55 54 52 50 45 49 48 42 43 44 31 29 53 65 75 85 93 96 99 100 98 95 91 90 90 87 85 84 84 86
59 53 51 56 56 46 48 48 38 39 39 25 22 20 30 34 48 64 82 90 95 99 100 95 93 90 87 86 84 82 83 84
50 47 49 52 52 56 50 41 34 35 35 35 33 31 19 25 31 47 59 72 87 89 93 94 92 89 86 85 84 84 84 84

GFSFLT2_250_spd_009.txt.gz
Wind_Speed
36 31 37 46 54 61 65 61 56 47 44 44 43 39 38 35 37 36 34 32 37 34 34 32 28 25 23 21 22 21 24 25
44 38 31 25 34 58 63 63 57 54 52 45 48 44 44 43 41 39 41 37 40 29 38 35 31 28 27 26 26 25 28 28
47 43 43 45 35 37 59 66 66 61 52 56 55 54 50 50 49 46 43 41 40 35 39 33 32 30 31 31 30 31 31 31
53 53 47 45 41 40 49 49 67 72 57 63 63 66 60 56 56 53 51 45 44 44 41 37 38 36 35 35 34 35 35 35
58 54 51 49 51 54 43 49 57 68 59 68 72 67 65 61 62 57 57 53 47 44 47 42 44 40 40 39 38 38 40 41
66 62 69 58 57 54 54 46 43 50 63 71 78 75 74 70 66 65 63 58 52 50 49 48 46 46 45 44 42 43 46 47
73 71 76 65 62 60 54 45 46 44 54 69 77 84 80 77 74 74 69 64 62 54 52 54 55 52 50 49 48 48 51 53
84 78 77 77 68 62 61 56 50 48 45 53 66 84 86 84 83 77 75 69 68 65 57 56 57 56 56 52 51 52 56 57
86 85 85 89 64 69 67 64 60 48 42 54 65 69 81 87 88 83 80 79 73 69 66 63 61 63 61 60 56 55 59 62
95 92 98 72 76 76 76 69 63 54 53 56 57 64 68 84 93 90 84 81 79 73 69 67 66 65 65 64 63 61 63 67
105 99 91 85 76 83 85 72 76 65 58 56 58 61 63 67 86 92 88 91 87 79 78 75 70 69 66 67 69 68 67 70
111 105 94 78 87 93 86 81 79 69 58 56 51 53 55 65 69 79 91 91 93 87 86 80 79 75 75 73 72 71 72 74
111 104 95 91 94 92 89 85 79 70 60 56 56 60 57 63 73 74 81 93 95 97 94 88 84 80 82 82 78 78 77 74
107 105 100 97 96 93 88 81 76 70 52 49 46 47 54 59 63 72 78 88 96 99 98 95 91 87 85 85 84 83 82 80
99 105 104 98 87 86 88 79 74 60 44 42 46 49 53 60 64 66 72 78 85 91 100 98 96 92 92 91 88 90 89 85
95 89 92 93 86 80 73 69 65 55 46 42 44 48 46 52 61 62 59 61 70 79 85 89 94 96 97 97 94 89 88 89
83 76 77 78 57 49 58 71 54 43 43 49 55 53 51 49 41 22 17 24 39 56 70 79 85 88 96 98 97 93 89 85
79 67 57 59 66 39 50 57 53 57 58 60 52 50 35 27 22 8 15 34 59 60 51 62 70 74 80 86 93 95 92 91
73 62 51 53 64 67 56 55 53 57 57 50 42 30 33 33 31 35 36 45 73 55 56 44 47 54 61 70 80 81 87 85